COSMOS 2458 (734) (36113 NORAD) Tracking and Keplerian Element Data

This shows tracking and keplerian element data for the satellite.

Feedback or suggestion? Click here.




ElementValue
Catalog36113
NameCOSMOS 2458 (734)
Epoch Orbit7170
Epoch Day61.48049084
Epoch Year2019
RAAN162.1919
Inclination64.1827
Eccentricity0.0002537
Argument of Perigee40.6396
Mean Anonmoly243.1729
Mean Motion2.13091333
Decay Rate-4E-07
L11 36113U 09070C 19061.48049084 -.00000040 00000-0 10000-3 0 9993
L22 36113 64.1827 162.1919 0002537 40.6396 243.1729 2.13091333 71706



Live tracking and technical data element details for COSMOS 2458 (734) (NORAD 36113). COSMOS 2458 (734) can be tracked NOW for your location showing map with azimuth and elevation plus other details from your city location.







IsCatalogInMostPopularTable: catalog: 36113, numindb: 360
Update: records affected: 1



GetName: 36113 COSMOS 2458 (734)

Hit Count: updated at: Sat, 24 May 2025 15:45:17 GMT